User: anonymous   Login
Location: Unspecified
(0.0000°N, 0.0000°E)
Time: 12:30:26
(UTC+00:00)
Language:

Aussat K2 - Orbit

View from above orbital plane
View from above orbital plane
View from above satellite
View from above satellite

Ground track
Ground track

The orbit data is extracted from the following two-line orbital elements,

1 16275U 85109C   15212.78678722 -.00000281  00000-0  00000+0 0  9993
2 16275 014.9422 015.9652 0006097 181.0540 137.1347 00.99937590 98367
Epoch (UTC): 31 July 2015 18:52:58
Eccentricity: 0.0006097
inclination: 14.9422°
perigee height: 35854 km
apogee height: 35906 km
right ascension of ascending node: 15.9652°
argument of perigee: 181.0540°
revolutions per day: 0.99937590
mean anomaly at epoch: 137.1347°
orbit number at epoch: 9836

The dashed part of the orbit path shows where the satellite is in the earth's shadow,  

DLR